Tracking 25995 objects as of 19-Aug-2022
HD Live streaming from Space Station
objects crossing your sky now

CHINASAT 2D

Track CHINASAT 2D now!


NORAD ID: 43920
Int'l Code: 2019-001A
Perigee: 35,789.7 km
Apogee: 35,796.2 km
Inclination: 0.1 °
Period: 1,436.1 minutes
Semi major axis: 42163 km
RCS: Unknown
Launch date: January 10, 2019
Source: People's Republic of China (PRC)
Launch site: Xichang Space Center, China (XSC)
aabbcc
Your satellite tracking list
Your tracking list is empty




NASA's NSSDC Master Catalog

Two Line Element Set (TLE):
1 43920U 19001A   22230.59512618 -.00000344  00000-0  00000-0 0  9997
2 43920   0.0658 294.8781 0000773 101.7988 274.5325  1.00274491 40043
Source of the keplerian elements: AFSPC